Home > Weather > Norfolk > Past weeks

Flag for USA Past Weather in Norfolk, Virginia, USA — Yesterday and Last 2 Weeks

Now
77 °F

Passing clouds.


Feels Like: 78 °F
Forecast: 75 / 88 °F
Wind: No wind

Location: Norfolk Naval Air Station

Current Time: Jul 30, 2016 at 1:28:42 AM

Latest Report: Jul 30, 2016 at 12:59 AM


Visibility: 10 mi

Pressure: 29.96 "Hg

Humidity: 85%

Dew Point: 72 °F

Location of NorfolkLocation

Past Weather in Norfolk — Graph

°F

Norfolk Temperature Yesterday

Maximum temperature yesterday: 88 °F (at 12:59 PM)
Minimum temperature yesterday: 77 °F (at 11:59 PM)
Average temperature yesterday: 83 °F

High & Low Weather Summary for the Past Weeks

 TemperatureHumidityPressure
High98 °F (Jul 24, 2:59 PM)97% (Jul 21, 5:59 AM)30.21 "Hg (Jul 21, 5:59 AM)
Low70 °F (Jul 20, 12:59 AM)42% (Jul 25, 4:59 PM)29.79 "Hg (Jul 29, 4:59 AM)
Average84 °F70%30.03 "Hg
* Reported Jul 14 11:59 PM — Jul 29 11:59 PM, Norfolk, Weather by CustomWeather, © 2016

Note: Actual official high and low records may vary slightly from our data, if they occured in-between our weather recording intervals... More about our weather records

Advertising

Norfolk Weather History for the Previous 24 Hours

Scroll right to see more
 ConditionsComfort  
Time TempWeatherWind HumidityBarometerVisibility
11:59 PM
Fri, Jul 29
77 °FPassing clouds.No wind85%29.96 "Hg10 mi
10:59 PM78 °FPassing clouds.No wind82%29.96 "Hg10 mi
9:59 PM79 °FPassing clouds.3 mph79%29.94 "Hg10 mi
8:59 PM81 °FBroken clouds.No wind74%29.93 "Hg10 mi
7:59 PM83 °FBroken clouds.6 mph70%29.92 "Hg10 mi
6:59 PM84 °FBroken clouds.6 mph70%29.91 "Hg10 mi
5:59 PM85 °FBroken clouds.6 mph68%29.90 "Hg10 mi
4:59 PM86 °FBroken clouds.8 mph67%29.89 "Hg10 mi
3:59 PM86 °FBroken clouds.7 mph67%29.88 "Hg10 mi
2:59 PM86 °FBroken clouds.7 mph65%29.88 "Hg10 mi
1:59 PM87 °FPartly sunny.10 mph57%29.87 "Hg10 mi
12:59 PM88 °FScattered clouds.7 mph61%29.87 "Hg10 mi
11:59 AM86 °FScattered clouds.9 mph65%29.88 "Hg10 mi
10:59 AM84 °FBroken clouds.12 mph70%29.88 "Hg10 mi
9:59 AM83 °FPartly sunny.13 mph74%29.87 "Hg10 mi
8:59 AM82 °FScattered clouds.12 mph74%29.85 "Hg10 mi
7:59 AM83 °FPassing clouds.12 mph70%29.85 "Hg9 mi
6:59 AM81 °FPassing clouds.8 mph74%29.83 "Hg9 mi
5:59 AM81 °FPassing clouds.9 mph72%29.80 "Hg10 mi
4:59 AM83 °FPassing clouds.10 mph68%29.79 "Hg10 mi
3:59 AM83 °FClear.10 mph68%29.80 "Hg10 mi
2:59 AM84 °FPassing clouds.5 mph67%29.81 "Hg10 mi
1:59 AM85 °FPassing clouds.8 mph65%29.83 "Hg10 mi
Weather by CustomWeather, © 2016

See weather overviewHow to use our weather pages